Weather History for Williston, ND

Change the Weather History Date:

Tuesday, June 18, 2013

  Actual Average Record
Temperature  
Mean Temperature 62 °F 64 °F  
Max Temperature 79 °F 78 °F 95 °F (1988)
Min Temperature 45 °F 50 °F 29 °F (2004)
Degree Days  
Heating Degree Days 3 3  
Month to date heating degree days 123 91  
Since 1 June heating degree days 123 91  
Since 1 July heating degree days 9416 8965  
Cooling Degree Days 0 2  
Month to date cooling degree days 2 29  
Year to date cooling degree days 10 42  
Since 1 June cooling degree days 2 29  
Growing Degree Days 12 (Base 50)    
Moisture  
Dew Point 51 °F    
Average Humidity 66    
Maximum Humidity 93    
Minimum Humidity 39    
Precipitation  
Precipitation 0.00 in 0.09 in 2.53 in (1956)
Month to date precipitation 1.70 1.44  
Year to date precipitation 9.51 6.05  
Snow  
Snow 0.00 in 0.00 in T in (2012)
Month to date snowfall 0.0 0.0  
Since 1 June snowfall 0.0 0.0  
Snow Depth 0.00 in    
Sea Level Pressure  
Sea Level Pressure 30.01 in    
Wind  
Wind Speed 6 mph (SE)    
Max Wind Speed 14 mph    
Max Gust Speed 22 mph    
Visibility 9 miles    
Events      
T = Trace of Precipitation, MM = Missing Value Source: NWS Daily Summary

Daily Weather History Graph

Daily Weather History Graph

Search for Another Location

Airport:

Trip Planner

Search our weather history database for the weather conditions in past years. The results will help you decide how hot, cold, wet, or windy it might be!

Date:

Astronomy

Jun. 18, 2013 Rise Set
Actual Time 5:53 AM CDT 9:57 PM CDT
Civil Twilight 5:12 AM CDT 10:39 PM CDT
Nautical Twilight 4:13 AM CDT 11:37 PM CDT
Astronomical Twilight 2:30 AM CDT 1:21 AM CDT
Moon 4:27 PM CDT (6/18) 2:24 AM CDT (6/18)
Length of Visible Light 17h 27m
Length of Day
16h 04m
Waxing Gibbous, 71% of the Moon is Illuminated
Jun 18
Waxing Gibbous
Jun 23
Full
Jun 29
Last Quarter
Jul 8
New
Jul 15
First Quarter

Hourly Weather History & Observations

Time (CDT) Temp. Dew Point Humidity Pressure Visibility Wind Dir Wind Speed Gust Speed Precip Events Conditions
12:52 AM 50.0 °F 46.9 °F 89% 30.09 in 10.0 mi North 3.5 mph - N/A   Clear
1:52 AM 50.0 °F 48.0 °F 93% 30.09 in 10.0 mi Calm Calm - N/A   Clear
2:52 AM 50.0 °F 46.9 °F 89% 30.10 in 10.0 mi Calm Calm - N/A   Clear
3:52 AM 46.9 °F 45.0 °F 93% 30.10 in 10.0 mi Calm Calm - N/A   Clear
4:52 AM 46.0 °F 45.0 °F 96% 30.11 in 6.0 mi Calm Calm - N/A   Clear
5:52 AM 46.0 °F 44.1 °F 93% 30.10 in 8.0 mi Calm Calm - N/A   Clear
6:20 AM 46.4 °F 44.6 °F 93% 30.09 in 1.2 mi Calm Calm - N/A   Clear
6:27 AM 46.4 °F 46.4 °F 100% 30.09 in 0.8 mi Calm Calm - N/A   Clear
6:33 AM 48.2 °F 46.4 °F 93% 30.09 in 2.5 mi Calm Calm - N/A   Clear
6:38 AM 48.2 °F 46.4 °F 93% 30.09 in 6.0 mi Calm Calm - N/A   Clear
6:52 AM 53.1 °F 50.0 °F 89% 30.09 in 6.0 mi Calm Calm - N/A   Clear
7:52 AM 57.9 °F 52.0 °F 81% 30.07 in 9.0 mi Calm Calm - N/A   Clear
8:52 AM 60.1 °F 53.1 °F 78% 30.06 in 10.0 mi SSE 5.8 mph - N/A   Clear
9:52 AM 64.0 °F 54.0 °F 70% 30.06 in 10.0 mi SE 6.9 mph - N/A   Clear
10:52 AM 66.9 °F 54.0 °F 63% 30.05 in 10.0 mi SSE 5.8 mph - N/A   Clear
11:52 AM 71.1 °F 54.0 °F 55% 30.02 in 10.0 mi ESE 8.1 mph - N/A   Clear
12:52 PM 73.0 °F 53.1 °F 49% 30.01 in 10.0 mi ESE 10.4 mph - N/A   Clear
1:52 PM 75.0 °F 53.1 °F 46% 29.99 in 10.0 mi SSE 8.1 mph - N/A   Clear
2:52 PM 75.9 °F 52.0 °F 43% 29.97 in 10.0 mi SE 11.5 mph - N/A   Clear
3:52 PM 78.1 °F 52.0 °F 40% 29.95 in 10.0 mi SE 10.4 mph - N/A   Clear
4:52 PM 78.1 °F 55.0 °F 45% 29.93 in 10.0 mi SSE 8.1 mph - N/A   Clear
5:52 PM 78.1 °F 55.0 °F 45% 29.92 in 10.0 mi SE 10.4 mph - N/A   Clear
6:52 PM 77.0 °F 55.0 °F 47% 29.89 in 10.0 mi ESE 8.1 mph - N/A   Clear
7:52 PM 75.9 °F 57.0 °F 52% 29.88 in 10.0 mi ESE 10.4 mph - N/A   Clear
8:52 PM 73.9 °F 57.9 °F 57% 29.88 in 10.0 mi ESE 6.9 mph - N/A   Clear
9:52 PM 69.1 °F 57.9 °F 68% 29.86 in 10.0 mi East 9.2 mph - N/A   Clear
10:52 PM 68.0 °F 57.9 °F 70% 29.87 in 10.0 mi ESE 9.2 mph - N/A   Clear
11:52 PM 66.9 °F 57.0 °F 70% 29.85 in 10.0 mi SE 6.9 mph - N/A   Clear